Stations météo

réclame
Mon MeteoGroup
Capo Bellavista, Italie (16550): Température de l'air & dewpoint: 12.06.2018 03:00:00 - 18.06.2018 03:00:00 (CEST)Capo Bellavista, Italie (16550): Vitesse du vent: 12.06.2018 03:00:00 - 18.06.2018 03:00:00 (CEST)Capo Bellavista, Italie (16550): Direction du vent: 12.06.2018 03:00:00 - 18.06.2018 03:00:00 (CEST)Capo Bellavista, Italie (16550): reduced air pressure: 12.06.2018 03:00:00 - 18.06.2018 03:00:00 (CEST)Capo Bellavista, Italie (16550): visibility: 12.06.2018 03:00:00 - 18.06.2018 03:00:00 (CEST)Capo Bellavista, Italie (16550): Ensoleillement: 12.06.2018 03:00:00 - 18.06.2018 03:00:00 (CEST)
Date & Time tt [°C] td [°C] ff [km/h] ff [knt] dd ppp [hPa] vv [km] sd [min]
18.06.2018 03:00:00 21,0 8,6 16 9 NW 1014,0 20 -
18.06.2018 02:00:00 21,6 9,2 15 8 NW 1014,0 20 -
18.06.2018 01:00:00 22,0 11,1 11 6 WNW 1014,0 20 -
18.06.2018 00:00:00 22,2 12,7 11 6 WNW 1014,0 20 -
17.06.2018 23:00:00 22,0 16,1 15 8 WNW 1013,9 20 -
17.06.2018 22:00:00 22,8 15,9 8 4 SW 1013,6 20 -
17.06.2018 21:00:00 23,4 12,1 11 6 SSW 1013,9 20 -
17.06.2018 20:00:00 23,6 13,8 8 4 SSW 1013,9 20 36
17.06.2018 19:00:00 25,2 18,2 4 2 S 1013,8 20 24
17.06.2018 18:00:00 25,0 19,2 4 2 S 1014,1 20 24
17.06.2018 17:00:00 27,0 19,9 8 4 SSE 1014,2 20 18
17.06.2018 16:00:00 29,0 15,9 4 2 SSE 1014,0 20 60
17.06.2018 15:00:00 29,0 16,9 8 4 ESE 1013,9 20 60
17.06.2018 14:00:00 29,0 16,9 8 4 ESE 1014,0 20 60
17.06.2018 13:00:00 29,6 15,3 4 2 ESE 1013,9 20 60
17.06.2018 12:00:00 29,0 15,5 4 2 ESE 1013,8 30 60
17.06.2018 11:00:00 27,0 10,7 4 2 ESE 1014,0 30 60
17.06.2018 10:00:00 26,0 11,4 4 2 ESE 1013,9 30 60
17.06.2018 09:00:00 22,6 10,1 2 1 NNW 1013,6 30 60
17.06.2018 08:00:00 20,0 9,3 2 1 N 1013,5 25 60
17.06.2018 07:00:00 20,0 10,7 13 7 NW 1013,0 25 -
17.06.2018 06:00:00 19,4 11,4 9 5 NW 1012,8 25 -
17.06.2018 05:00:00 19,2 12,0 11 6 NW 1012,8 20 -
17.06.2018 04:00:00 19,8 13,7 11 6 NW 1013,0 20 -
17.06.2018 03:00:00 19,8 14,2 13 7 WNW 1013,0 20 -
17.06.2018 02:00:00 20,0 15,4 5 3 W 1013,0 20 -
17.06.2018 01:00:00 19,8 15,9 11 6 WNW 1013,0 20 -
17.06.2018 00:00:00 20,0 16,4 11 6 WNW 1013,0 20 -
16.06.2018 23:00:00 20,8 16,2 2 1 W 1011,9 20 -
16.06.2018 22:00:00 21,8 16,3 4 2 W 1012,4 20 -
16.06.2018 21:00:00 22,0 15,8 4 2 WSW 1012,2 30 -
16.06.2018 20:00:00 23,4 16,2 2 1 SW 1011,7 30 42
16.06.2018 19:00:00 23,8 18,0 2 1 SE 1011,7 30 18
16.06.2018 18:00:00 24,2 18,6 2 1 E 1011,4 30 42
16.06.2018 17:00:00 25,2 18,2 8 4 ESE 1011,6 30 60
16.06.2018 16:00:00 25,4 17,3 13 7 E 1011,8 30 60
16.06.2018 15:00:00 27,6 14,6 15 8 E 1012,2 30 60
16.06.2018 14:00:00 27,0 15,7 15 8 E 1012,2 30 60
16.06.2018 13:00:00 28,6 13,7 15 8 E 1011,7 30 60
16.06.2018 12:00:00 28,2 11,3 11 6 ESE 1011,8 30 60
16.06.2018 11:00:00 28,0 11,5 9 5 E 1011,0 10 60
16.06.2018 10:00:00 23,0 8,7 11 6 E 1011,3 30 60
16.06.2018 09:00:00 22,4 9,9 4 2 WNW 1011,2 30 60
16.06.2018 08:00:00 20,6 11,0 15 8 NW 1010,9 30 6
16.06.2018 07:00:00 20,0 10,7 15 8 NW 1010,7 30 -
16.06.2018 06:00:00 20,0 10,7 15 8 NW 1010,4 20 0
16.06.2018 05:00:00 20,0 9,9 18 10 NW 1010,4 10 -
16.06.2018 04:00:00 20,0 9,9 18 10 WNW 1010,4 15 -
16.06.2018 03:00:00 20,0 12,7 16 9 WNW 1010,6 15 -
16.06.2018 02:00:00 20,0 14,4 15 8 NW 1010,6 15 -
16.06.2018 01:00:00 20,0 14,1 15 8 WNW 1010,6 15 -
16.06.2018 00:00:00 20,0 15,2 15 8 WNW 1010,6 20 -
15.06.2018 23:00:00 20,0 15,2 16 9 WNW 1010,6 20 -
15.06.2018 22:00:00 20,6 17,8 8 4 WNW 1010,5 30 -
15.06.2018 21:00:00 21,2 17,6 4 2 NW 1010,2 30 -
15.06.2018 20:00:00 23,0 18,3 4 2 NNW 1010,1 30 42
15.06.2018 19:00:00 22,2 17,6 4 2 NW 1010,2 30 12
15.06.2018 18:00:00 21,6 18,0 8 4 NNW 1010,1 25 0
15.06.2018 17:00:00 21,0 17,0 4 2 SSW 1010,4 20 0
15.06.2018 16:00:00 21,0 17,0 4 2 ESE 1010,2 20 0
15.06.2018 15:00:00 20,6 19,2 15 8 ENE 1009,9 18 30
15.06.2018 14:00:00 19,0 17,5 8 4 WNW 1009,9 18 36
15.06.2018 13:00:00 25,0 18,0 26 14 ENE 1009,0 20 60
15.06.2018 12:00:00 28,4 15,3 11 6 ESE 1008,8 30 60
15.06.2018 11:00:00 28,0 12,8 5 3 E 1008,8 20 60
15.06.2018 10:00:00 26,0 10,6 4 2 E 1009,0 30 60
15.06.2018 09:00:00 22,0 11,1 2 1 NNW 1009,0 25 60
15.06.2018 08:00:00 19,4 11,9 11 6 NW 1008,6 20 60
15.06.2018 07:00:00 19,0 12,0 16 9 NW 1008,5 20 60
15.06.2018 06:00:00 19,0 12,0 15 8 NW 1008,5 20 -
15.06.2018 05:00:00 18,8 12,1 11 6 NW 1008,6 15 -
15.06.2018 04:00:00 19,0 14,5 2 1 NNW 1008,7 15 -
15.06.2018 03:00:00 19,2 14,7 4 2 NNE 1008,6 15 -
15.06.2018 02:00:00 19,0 15,1 2 1 WNW 1008,6 15 -
15.06.2018 01:00:00 19,0 16,0 2 1 W 1008,9 15 -
15.06.2018 00:00:00 19,0 17,3 9 5 WNW 1008,8 15 -
14.06.2018 23:00:00 19,2 17,2 8 4 W 1008,7 15 -
14.06.2018 22:00:00 20,0 18,3 5 3 W 1008,4 15 -
14.06.2018 21:00:00 20,8 18,5 2 1 SW 1008,0 20 -
14.06.2018 20:00:00 21,0 17,8 2 1 E 1007,7 20 -
14.06.2018 19:00:00 21,8 19,0 9 5 ENE 1007,8 20 60
14.06.2018 18:00:00 22,0 19,2 4 2 NNE 1006,9 25 60
14.06.2018 17:00:00 22,6 18,0 11 6 ENE 1006,6 25 54
14.06.2018 16:00:00 23,0 18,8 16 9 SE 1006,2 25 54
14.06.2018 15:00:00 24,0 18,2 15 8 ENE 1006,3 25 30
14.06.2018 14:00:00 22,4 17,8 18 10 ENE 1006,6 25 36
14.06.2018 13:00:00 23,0 17,2 16 9 ENE 1006,2 25 30
14.06.2018 12:00:00 21,0 15,3 31 17 NE 1006,0 25 30
14.06.2018 11:00:00 22,4 14,3 24 13 NE 1005,5 20 6
14.06.2018 10:00:00 21,8 12,7 15 8 NNE 1005,2 20 60
14.06.2018 09:00:00 21,8 12,4 15 8 NNW 1004,9 30 48
14.06.2018 08:00:00 20,2 11,9 16 9 NNW 1004,9 20 0
14.06.2018 07:00:00 19,0 11,8 11 6 NW 1004,4 20 -
14.06.2018 06:00:00 19,0 11,8 9 5 WNW 1004,4 20 -
14.06.2018 05:00:00 19,0 12,3 0 0 N 1004,4 20 -
14.06.2018 04:00:00 19,0 12,0 0 0 N 1004,4 20 -
14.06.2018 03:00:00 19,0 12,3 0 0 N 1004,4 20 -
14.06.2018 02:00:00 19,0 13,0 0 0 N 1004,7 20 -
14.06.2018 01:00:00 19,6 12,4 8 4 NNW 1005,2 20 -
14.06.2018 00:00:00 19,6 12,4 0 0 N 1005,4 20 -
13.06.2018 23:00:00 19,0 13,4 5 3 SW 1005,5 20 -
13.06.2018 22:00:00 19,0 13,4 8 4 WNW 1005,3 16 -
13.06.2018 21:00:00 21,2 10,4 0 0 N 1005,3 20 -
13.06.2018 20:00:00 22,0 11,4 8 4 W 1005,3 20 12
13.06.2018 19:00:00 20,4 13,1 4 2 SW 1005,7 20 0
13.06.2018 18:00:00 20,2 14,1 11 6 W 1006,4 14 0
13.06.2018 17:00:00 24,6 10,5 16 9 WNW 1005,8 15 12
13.06.2018 16:00:00 24,6 14,4 13 7 NW 1005,4 16 12
13.06.2018 15:00:00 25,0 8,5 28 15 W 1005,7 30 60
13.06.2018 14:00:00 27,0 17,2 16 9 E 1007,4 30 60
13.06.2018 13:00:00 25,2 15,5 9 5 E 1007,0 30 24
13.06.2018 12:00:00 22,6 15,0 16 9 N 1007,6 20 0
13.06.2018 11:00:00 25,0 9,7 15 8 WNW 1007,0 30 48
13.06.2018 10:00:00 25,8 12,6 4 2 W 1006,9 30 42
13.06.2018 09:00:00 25,6 13,1 5 3 NE 1007,1 30 60
13.06.2018 08:00:00 22,6 10,7 4 2 E 1007,6 30 60
13.06.2018 07:00:00 20,6 9,2 8 4 WNW 1008,0 30 0
13.06.2018 06:00:00 21,6 8,5 16 9 W 1009,9 20 -
13.06.2018 05:00:00 21,8 8,3 16 9 WNW 1009,9 20 -
13.06.2018 04:00:00 21,0 7,3 11 6 W 1009,9 20 -
13.06.2018 03:00:00 21,2 6,7 13 7 W 1009,8 20 -
13.06.2018 02:00:00 21,6 8,5 16 9 W 1009,9 20 -
13.06.2018 01:00:00 21,8 8,3 16 9 WNW 1009,9 20 -
13.06.2018 00:00:00 22,0 8,2 13 7 W 1009,9 20 -
12.06.2018 23:00:00 22,2 7,6 13 7 W 1009,8 20 -
12.06.2018 22:00:00 22,4 7,0 15 8 W 1009,7 20 -
12.06.2018 21:00:00 23,6 7,7 11 6 NW 1009,5 25 -
12.06.2018 20:00:00 26,4 5,9 18 10 NW 1009,0 30 60
12.06.2018 19:00:00 26,0 14,2 11 6 NW 1008,8 30 30
12.06.2018 18:00:00 25,8 21,0 13 7 NNW 1009,0 30 30
12.06.2018 17:00:00 24,8 20,1 13 7 E 1009,2 20 30
12.06.2018 16:00:00 29,2 15,0 9 5 SSE 1009,9 30 60
12.06.2018 15:00:00 29,4 15,5 9 5 S 1009,9 30 60
12.06.2018 14:00:00 29,6 16,8 9 5 SSE 1009,9 30 60
12.06.2018 13:00:00 29,2 15,0 11 6 SE 1009,9 30 60
12.06.2018 12:00:00 29,0 14,4 9 5 SE 1009,7 30 60
12.06.2018 11:00:00 25,0 17,0 0 0 N 1009,8 30 60
12.06.2018 10:00:00 24,0 15,8 0 0 N 1010,1 30 60
12.06.2018 09:00:00 22,4 13,7 2 1 S 1009,7 30 60
12.06.2018 08:00:00 21,4 14,6 2 1 SSW 1009,4 30 60
12.06.2018 07:00:00 20,8 15,8 2 1 S 1009,6 30 -
12.06.2018 06:00:00 20,4 18,4 2 1 SSW 1009,5 30 -
12.06.2018 05:00:00 20,4 17,2 2 1 S 1009,5 20 -
12.06.2018 04:00:00 20,2 18,5 2 1 S 1009,5 30 -
12.06.2018 03:00:00 20,0 18,0 2 1 E 1009,5 30 -

tt = Température de l'air
td = dewpoint
ff = Vitesse du vent
dd = Direction du vent
ppp = reduced air pressure
vv = visibility
sd = Ensoleillement

stations d'obs. à proximité